Find Starlink 4363

NORAD ID: 53220 Int'l Des: 2022-084 Owner: SPXS Country: US Constellation: starlink operational
LEOCIRCULARRETROGRADESSO

リアルタイム位置

3D地球を読み込み中...

Starlink 4363について

説明を読み込み中...

次回通過

Passes for default location (London). Set your location on the main map for personalized predictions.

高度履歴

Loading altitude history...

軌道要素

1 53220U 22084AH 26105.14957722 .00000290 00000-0 24282-4 0 9992
2 53220 97.6032 166.0072 0001437 92.1951 267.9440 15.05647026205314
Epoch: Apr 15, 2026 • Age: 9 hours

現在のステータス

高度 562.0 km
速度 7.58 km/s
衛星直下点 -31.61°S, 132.09°E
打ち上げ日 Jul 22, 2022
運用期間 3.7 years
タイプ internet

技術仕様

分類 Payload
質量 297.00 kg
乾燥質量 275.00 kg
総質量 297.00 kg
長さ 0.20 m
直径 2.80 m
スパン 9.00 m
形状 Box + pan
製造者 SPXS
バスタイプ Starlink
フェーズステータス In Orbit
所有者/国 SPXS/US

Most Searched